Location: Unspecified
(41.1850°N, 73.2650°W)
Time: 03:00:46
(UTC+00:00)

Meteor 1-26 Rocket - Visible Passes

Search period start: 17 March 2026 00:00
Search period end: 27 March 2026 00:00
Orbit: 805 x 927 km, 81.3° (Epoch: 16 March)

Date Brightness Start Highest point End Pass type
(mag) Time Alt. Az. Time Alt. Az. Time Alt. Az.
17 Mar 7.1 09:36:22 10° SE 09:40:21 19° E 09:44:15 10° NE visible
18 Mar 7.1 09:29:00 10° SE 09:32:59 19° E 09:36:53 10° NE visible
19 Mar 7.0 09:21:38 10° SE 09:25:37 19° E 09:29:31 10° NE visible
20 Mar 7.0 09:14:16 10° SE 09:18:15 20° E 09:22:10 10° NE visible
21 Mar 6.9 09:06:53 10° SE 09:10:52 20° E 09:14:48 10° NE visible
22 Mar 6.9 08:59:31 10° SE 09:03:31 20° E 09:07:26 10° NE visible
23 Mar 6.8 08:52:09 10° SE 08:56:08 20° E 09:00:04 10° NE visible
24 Mar 6.8 08:44:46 10° SE 08:48:46 20° E 08:52:42 10° NE visible
25 Mar 6.7 08:37:23 10° SE 08:41:24 20° E 08:45:20 10° NE visible
25 Mar 4.4 10:18:39 10° SSW 10:24:12 52° WNW 10:29:39 10° N visible
26 Mar 6.7 08:30:02 10° SE 08:34:01 20° E 08:37:58 10° NE visible
26 Mar 4.4 10:11:18 10° SSW 10:16:50 52° WNW 10:22:16 10° N visible
